H1 CPF 2 NER 2025 11 3 9 307 01 glonass146 H2 2216101 9146 54377 2025 11 3 0 0 0 2025 11 6 23 45 0 900 1 1 0 0 0 1 H9 10 0 60982 0.00000 0 -13984627.417 13959938.199 -16147275.468 10 0 60982 900.00000 0 -15616006.825 14823439.045 -13701051.360 10 0 60982 1800.00000 0 -16899930.181 15654434.926 -10989083.113 10 0 60982 2700.00000 0 -17825200.395 16394020.024 -8064017.355 10 0 60982 3600.00000 0 -18393733.852 16984058.496 -4982605.617 10 0 60982 4500.00000 0 -18620254.870 17369763.800 -1804606.095 10 0 60982 5400.00000 0 -18531466.943 17502152.451 1408371.242 10 0 60982 6300.00000 0 -18164736.753 17340269.125 4594054.068 10 0 60982 7200.00000 0 -17566347.116 16853089.567 7690708.782 10 0 60982 8100.00000 0 -16789392.894 16021021.217 10638330.338 10 0 60982 9000.00000 0 -15891408.545 14836938.212 13379798.169 10 0 60982 9900.00000 0 -14931827.062 13306706.809 15861976.278 10 0 60982 10800.00000 0 -13969376.851 11449178.335 18036736.781 10 0 60982 11700.00000 0 -13059525.498 9295648.816 19861887.700 10 0 60982 12600.00000 0 -12252077.328 6888806.441 21301987.639 10 0 60982 13500.00000 0 -11589025.194 4281209.097 22329032.119 10 0 60982 14400.00000 0 -11102746.303 1533353.518 22922998.666 10 0 60982 15300.00000 0 -10814617.752 -1288585.464 23072240.211 10 0 60982 16200.00000 0 -10734109.992 -4115253.484 22773719.082 10 0 60982 17100.00000 0 -10858396.783 -6876750.908 22033076.539 10 0 60982 18000.00000 0 -11172498.745 -9505294.782 20864535.756 10 0 60982 18900.00000 0 -11649955.449 -11937798.934 19290639.090 10 0 60982 19800.00000 0 -12253998.813 -14118265.666 17341823.499 10 0 60982 20700.00000 0 -12939179.443 -15999889.754 15055841.104 10 0 60982 21600.00000 0 -13653378.201 -17546787.068 12477034.968 10 0 60982 22500.00000 0 -14340118.664 -18735275.405 9655483.175 10 0 60982 23400.00000 0 -14941082.911 -19554653.607 6646027.244 10 0 60982 24300.00000 0 -15398723.946 -20007446.050 3507203.576 10 0 60982 25200.00000 0 -15658863.412 -20109102.134 300098.939 10 0 60982 26100.00000 0 -15673163.502 -19887163.598 -2912847.027 10 0 60982 27000.00000 0 -15401366.922 -19379935.268 -6069067.935 10 0 60982 27900.00000 0 -14813208.564 -18634716.134 -9107100.305 10 0 60982 28800.00000 0 -13889916.419 -17705666.602 -11967791.429 10 0 60982 29700.00000 0 -12625236.934 -16651403.259 -14595460.641 10 0 60982 30600.00000 0 -11025940.308 -15532424.085 -16938990.380 10 0 60982 31500.00000 0 -9111783.616 -14408474.077 -18952825.020 10 0 60982 32400.00000 0 -6914932.694 -13335963.400 -20597857.706 10 0 60982 33300.00000 0 -4478866.725 -12365547.570 -21842188.023 10 0 60982 34200.00000 0 -1856811.273 -11539971.807 -22661736.164 10 0 60982 35100.00000 0 890234.807 -10892270.049 -23040702.369 10 0 60982 36000.00000 0 3695796.365 -10444393.704 -22971863.644 10 0 60982 36900.00000 0 6490447.285 -10206326.816 -22456702.924 10 0 60982 37800.00000 0 9204459.489 -10175723.584 -21505369.147 10 0 60982 38700.00000 0 11770466.034 -10338082.157 -20136469.829 10 0 60982 39600.00000 0 14126028.431 -10667446.102 -18376700.826 10 0 60982 40500.00000 0 16216002.535 -11127602.887 -16260320.939 10 0 60982 41400.00000 0 17994605.919 -11673728.016 -13828481.818 10 0 60982 42300.00000 0 19427102.076 -12254404.921 -11128426.290 10 0 60982 43200.00000 0 20491032.836 -12813935.094 -8212570.651 10 0 60982 44100.00000 0 21176949.163 -13294840.943 -5137488.603 10 0 60982 45000.00000 0 21488611.289 -13640455.859 -1962816.400 10 0 60982 45900.00000 0 21442651.248 -13797492.374 1249899.728 10 0 60982 46800.00000 0 21067713.124 -13718480.350 4438391.812 10 0 60982 47700.00000 0 20403108.025 -13363972.476 7540871.199 10 0 60982 48600.00000 0 19497040.856 -12704424.233 10497219.498 10 0 60982 49500.00000 0 18404483.669 -11721668.959 13250146.751 10 0 60982 50400.00000 0 17184784.898 -10409925.559 15746294.853 10 0 60982 51300.00000 0 15899114.575 -8776295.801 17937265.405 10 0 60982 52200.00000 0 14607852.302 -6840729.243 19780552.748 10 0 60982 53100.00000 0 13368026.920 -4635455.852 21240364.676 10 0 60982 54000.00000 0 12230914.602 -2203908.307 22288315.476 10 0 60982 54900.00000 0 11239895.444 400822.978 22903978.305 10 0 60982 55800.00000 0 10428657.927 3117939.797 23075286.288 10 0 60982 56700.00000 0 9819826.256 5881211.937 22798774.518 10 0 60982 57600.00000 0 9424068.133 8621486.121 22079657.750 10 0 60982 58500.00000 0 9239720.678 11269325.426 20931741.575 10 0 60982 59400.00000 0 9252950.717 13757670.772 19377167.739 10 0 60982 60300.00000 0 9438443.343 16024414.645 17445997.337 10 0 60982 61200.00000 0 9760590.541 18014780.347 15175638.736 10 0 60982 62100.00000 0 10175130.392 19683407.586 12610130.119 10 0 60982 63000.00000 0 10631168.155 20996057.121 9799289.622 10 0 60982 63900.00000 0 11073493.943 21930862.605 6797748.955 10 0 60982 64800.00000 0 11445098.701 22479076.732 3663889.083 10 0 60982 65700.00000 0 11689781.263 22645279.925 458698.900 10 0 60982 66600.00000 0 11754735.014 22447042.631 -2755420.237 10 0 60982 67500.00000 0 11593003.147 21914055.607 -5915879.776 10 0 60982 68400.00000 0 11165696.950 21086765.334 -8961134.016 10 0 60982 69300.00000 0 10443881.558 20014572.979 -11831889.551 10 0 60982 70200.00000 0 9410047.874 18753673.939 -14472269.342 10 0 60982 71100.00000 0 8059107.096 17364630.342 -16830907.692 10 0 60982 72000.00000 0 6398864.801 15909780.046 -18861954.035 10 0 60982 72900.00000 0 4449953.819 14450592.338 -20525965.647 10 0 60982 73800.00000 0 2245228.165 13045082.379 -21790671.995 10 0 60982 74700.00000 0 -171356.883 11745393.469 -22631596.204 10 0 60982 75600.00000 0 -2746331.866 10595648.576 -23032522.307 10 0 60982 76500.00000 0 -5418701.262 9630160.722 -22985800.088 10 0 60982 77400.00000 0 -8122249.862 8872076.338 -22492482.555 10 0 60982 78300.00000 0 -10788071.634 8332507.105 -21562294.350 10 0 60982 79200.00000 0 -13347216.309 8010185.182 -20213432.524 10 0 60982 80100.00000 0 -15733344.208 7891654.634 -18472204.246 10 0 60982 81000.00000 0 -17885279.747 7951989.449 -16372508.922 10 0 60982 81900.00000 0 -19749358.413 8156006.566 -13955175.049 10 0 60982 82800.00000 0 -21281470.655 8459921.713 -11267164.805 10 0 60982 83700.00000 0 -22448718.783 8813377.490 -8360661.749 10 0 60982 84600.00000 0 -23230619.114 9161757.631 -5292059.237 10 0 60982 85500.00000 0 -23619800.410 9448689.589 -2120869.013 10 0 60983 0.00000 0 -23622170.678 9618629.719 1091428.744 10 0 60983 900.00000 0 -23256546.349 9619422.102 4282573.621 10 0 60983 1800.00000 0 -22553760.318 9404722.905 7390724.246 10 0 60983 2700.00000 0 -21555286.867 8936188.397 10355651.492 10 0 60983 3600.00000 0 -20311441.373 8185334.038 13119898.591 10 0 60983 4500.00000 0 -18879230.384 7134986.156 15629887.820 10 0 60983 5400.00000 0 -17319941.951 5780264.594 17836952.635 10 0 60983 6300.00000 0 -15696576.683 4129054.070 19698275.863 10 0 60983 7200.00000 0 -14071226.473 2201943.273 21177716.384 10 0 60983 8100.00000 0 -12502509.835 31632.581 22246508.851 10 0 60983 9000.00000 0 -11043170.379 -2338166.755 22883823.283 10 0 60983 9900.00000 0 -9737938.167 -4854298.072 23077173.869 10 0 60983 10800.00000 0 -8621742.869 -7456126.369 22822668.943 10 0 60983 11700.00000 0 -7718353.108 -10077827.128 22125096.848 10 0 60983 12600.00000 0 -7039498.873 -12650903.505 20997845.285 10 0 60983 13500.00000 0 -6584513.891 -15106828.635 19462654.693 10 0 60983 14400.00000 0 -6340513.269 -17379704.173 17549209.229 10 0 60983 15300.00000 0 -6283099.318 -19408824.875 15294572.044 10 0 60983 16200.00000 0 -6377566.285 -21141042.402 12742474.631 10 0 60983 17100.00000 0 -6580553.445 -22532829.371 9942473.048 10 0 60983 18000.00000 0 -6842076.811 -23551956.708 6948986.799 10 0 60983 18900.00000 0 -7107853.280 -24178713.330 3820238.804 10 0 60983 19800.00000 0 -7321818.188 -24406616.276 617117.289 10 0 60983 20700.00000 0 -7428728.609 -24242580.890 -2598017.591 10 0 60983 21600.00000 0 -7376740.736 -23706543.664 -5762558.156 10 0 60983 22500.00000 0 -7119850.578 -22830553.723 -8814879.587 10 0 60983 23400.00000 0 -6620092.891 -21657371.722 -11695550.929 10 0 60983 24300.00000 0 -5849403.671 -20238636.004 -14348501.891 10 0 60983 25200.00000 0 -4791065.958 -18632674.295 -16722121.670 10 0 60983 26100.00000 0 -3440676.665 -16902054.193 -18770267.584 10 0 60983 27000.00000 0 -1806592.731 -15110976.542 -20453163.584 10 0 60983 27900.00000 0 90162.899 -13322622.048 -21738171.167 10 0 60983 28800.00000 0 2216531.951 -11596562.987 -22600418.090 10 0 60983 29700.00000 0 4528561.995 -9986348.602 -23023273.381 10 0 60983 30600.00000 0 6973010.600 -8537364.861 -22998660.293 10 0 60983 31500.00000 0 9489345.597 -7285057.316 -22527202.110 10 0 60983 32400.00000 0 12012058.254 -6253590.103 -21618198.904 10 0 60983 33300.00000 0 14473193.332 -5454995.567 -20289436.557 10 0 60983 34200.00000 0 16804991.088 -4888848.338 -18566832.406 10 0 60983 35100.00000 0 18942531.873 -4542475.594 -16483924.882 10 0 60983 36000.00000 0 20826273.985 -4391692.947 -14081217.308 10 0 60983 36900.00000 0 22404379.939 -4402033.418 -11405388.726 10 0 60983 37800.00000 0 23634735.188 -4530416.500 -8508387.040 10 0 60983 38700.00000 0 24486576.116 -4727186.043 -5446421.949 10 0 60983 39600.00000 0 24941660.373 -4938430.375 -2278877.067 10 0 60983 40500.00000 0 24994931.639 -5108486.413 932837.866 10 0 60983 41400.00000 0 24654651.895 -5182521.916 4126472.680 10 0 60983 42300.00000 0 23941996.407 -5109086.863 7240137.613 10 0 60983 43200.00000 0 22890128.901 -4842526.327 10213496.328 10 0 60983 44100.00000 0 21542795.934 -4345153.035 12988928.433 10 0 60983 45000.00000 0 19952499.335 -3589087.901 15512639.369 10 0 60983 45900.00000 0 18178322.951 -2557690.638 17735696.771 10 0 60983 46800.00000 0 16283504.104 -1246519.584 19614973.823 10 0 60983 47700.00000 0 14332850.620 336220.597 21113981.918 10 0 60983 48600.00000 0 12390110.480 2169763.515 22203577.050 10 0 60983 49500.00000 0 10515403.048 4221396.198 22862526.672 10 0 60983 50400.00000 0 8762818.243 6447581.022 23077926.173 10 0 60983 51300.00000 0 7178283.075 8795539.756 22845456.861 10 0 60983 52200.00000 0 5797784.027 11205235.833 22169479.988 10 0 60983 53100.00000 0 4646019.119 13611674.179 21062964.292 10 0 60983 54000.00000 0 3735535.869 15947424.492 19547247.449 10 0 60983 54900.00000 0 3066391.188 18145264.113 17651634.872 10 0 60983 55800.00000 0 2626347.656 20140831.001 15412842.387 10 0 60983 56700.00000 0 2391598.048 21875176.413 12874292.417 10 0 60983 57600.00000 0 2327987.741 23297110.341 10085276.342 10 0 60983 58500.00000 0 2392683.392 24365240.972 7099998.667 10 0 60983 59400.00000 0 2536217.079 25049621.819 3976521.337 10 0 60983 60300.00000 0 2704818.798 25332936.472 775628.901 10 0 60983 61200.00000 0 2842937.604 25211170.287 -2440362.711 10 0 60983 62100.00000 0 2895843.259 24693740.130 -5608829.643 10 0 60983 63000.00000 0 2812196.642 23803076.408 -8668070.755 10 0 60983 63900.00000 0 2546478.337 22573675.035 -11558520.119 10 0 60983 64800.00000 0 2061170.912 21050659.709 -14223916.507 10 0 60983 65700.00000 0 1328601.013 19287915.717 -16612406.018 10 0 60983 66600.00000 0 332362.096 17345874.713 -18677555.601 10 0 60983 67500.00000 0 -931743.273 15289044.439 -20379257.350 10 0 60983 68400.00000 0 -2455282.057 13183387.938 -21684506.033 10 0 60983 69300.00000 0 -4217308.523 11093662.644 -22568035.052 10 0 60983 70200.00000 0 -6185016.527 9080830.964 -23012799.198 10 0 60983 71100.00000 0 -8314899.182 7199650.337 -23010295.707 10 0 60983 72000.00000 0 -10554367.446 5496542.791 -22560718.322 10 0 60983 72900.00000 0 -12843760.196 4007831.752 -21672942.372 10 0 60983 73800.00000 0 -15118662.059 2758418.182 -20364341.973 10 0 60983 74700.00000 0 -17312432.658 1760949.503 -18660443.616 10 0 60983 75600.00000 0 -19358842.235 1015514.049 -16594423.334 10 0 60983 76500.00000 0 -21194704.372 509871.783 -14206457.486 10 0 60983 77400.00000 0 -22762396.632 220209.716 -11542939.893 10 0 60983 78300.00000 0 -24012164.745 112388.586 -8655580.484 10 0 60983 79200.00000 0 -24904114.922 143626.998 -5600402.806 10 0 60983 80100.00000 0 -25409811.850 264551.049 -2436659.728 10 0 60983 81000.00000 0 -25513416.342 421522.319 774311.882 10 0 60983 81900.00000 0 -25212315.721 559145.633 3970275.481 10 0 60983 82800.00000 0 -24517221.095 622850.523 7089295.486 10 0 60983 83700.00000 0 -23451727.846 561437.463 10070931.245 10 0 60983 84600.00000 0 -22051357.853 329481.397 12857401.608 10 0 60983 85500.00000 0 -20362123.457 -110508.799 15394697.964 10 0 60984 0.00000 0 -18438673.072 -786266.025 17633624.564 10 0 60984 900.00000 0 -16342094.254 -1714353.481 19530747.727 10 0 60984 1800.00000 0 -14137467.836 -2899225.116 21049233.192 10 0 60984 2700.00000 0 -11891270.789 -4332799.742 22159559.965 10 0 60984 3600.00000 0 -9668737.589 -5994567.314 22840094.172 10 0 60984 4500.00000 0 -7531288.032 -7852224.994 23077513.222 10 0 60984 5400.00000 0 -5534127.884 -9862818.381 22867071.787 10 0 60984 6300.00000 0 -3724121.482 -11974342.315 22212704.014 10 0 60984 7200.00000 0 -2138024.417 -14127736.474 21126959.279 10 0 60984 8100.00000 0 -801149.573 -16259194.265 19630771.741 10 0 60984 9000.00000 0 273477.927 -18302690.127 17753066.966 10 0 60984 9900.00000 0 1085441.590 -20192620.649 15530212.014 10 0 60984 10800.00000 0 1646716.773 -21866449.569 13005318.488 10 0 60984 11700.00000 0 1980925.399 -23267245.951 10227411.047 10 0 60984 12600.00000 0 2122093.650 -24346008.609 7250476.910 10 0 60984 13500.00000 0 2112965.418 -25063678.420 4132414.559 10 0 60984 14400.00000 0 2002943.350 -25392752.910 933902.241 10 0 60984 15300.00000 0 1845745.557 -25318434.064 -2282791.076 10 0 60984 16200.00000 0 1696878.403 -24839260.117 -5455028.148 10 0 60984 17100.00000 0 1611033.941 -23967193.928 -8521034.354 10 0 60984 18000.00000 0 1639523.854 -22727163.895 -11421111.637 10 0 60984 18900.00000 0 1827860.259 -21156076.706 -14098810.645 10 0 60984 19800.00000 0 2213587.319 -19301343.845 -16502037.129 10 0 60984 20700.00000 0 2824456.708 -17218984.384 -18584070.266 10 0 60984 21600.00000 0 3677025.082 -14971384.509 -20304472.685 10 0 60984 22500.00000 0 4775733.498 -12624808.429 -21629874.523 10 0 60984 23400.00000 0 6112508.035 -10246765.482 -22534616.586 10 0 60984 24300.00000 0 7666898.694 -7903343.831 -23001240.815 10 0 60984 25200.00000 0 9406750.839 -5656621.951 -23020819.416 10 0 60984 26100.00000 0 11289381.034 -3562265.408 -22593117.203 10 0 60984 27000.00000 0 13263208.076 -1667408.102 -21726584.983 10 0 60984 27900.00000 0 15269771.067 -8904.900 -20438184.971 10 0 60984 28800.00000 0 17246050.307 1387973.248 -18753052.293 10 0 60984 29700.00000 0 19126994.320 2510349.236 -16703999.667 10 0 60984 30600.00000 0 20848147.874 3358023.082 -14330875.138 10 0 60984 31500.00000 0 22348271.639 3943218.786 -11679785.499 10 0 60984 32400.00000 0 23571844.598 4289807.338 -8802200.425 10 0 60984 33300.00000 0 24471345.228 4432040.212 -5753954.593 10 0 60984 34200.00000 0 25009216.587 4412848.004 -2594167.001 10 0 60984 35100.00000 0 25159433.706 4281776.850 615901.750 10 0 60984 36000.00000 0 24908608.146 4092650.339 3814032.322 10 0 60984 36900.00000 0 24256583.848 3901055.892 6938246.938 10 0 60984 37800.00000 0 23216499.522 3761761.826 9928004.170 10 0 60984 38700.00000 0 21814314.975 3726174.067 12725365.473 10 0 60984 39600.00000 0 20087820.950 3839939.733 15276111.290 10 0 60984 40500.00000 0 18085173.408 4140798.599 17530785.651 10 0 60984 41400.00000 0 15863012.734 4656773.089 19445649.651 10 0 60984 42300.00000 0 13484245.465 5404773.357 20983525.895 10 0 60984 43200.00000 0 11015579.907 6389676.809 22114518.111 10 0 60984 44100.00000 0 8524917.108 7603921.795 22816592.412 10 0 60984 45000.00000 0 6078704.599 9027633.938 23076009.114 10 0 60984 45900.00000 0 3739361.870 10629281.510 22887596.683 10 0 60984 46800.00000 0 1562883.668 12366834.373 22254862.107 10 0 60984 47700.00000 0 -403279.908 14189379.936 21189934.852 10 0 60984 48600.00000 0 -2121978.830 16039130.389 19713344.511 10 0 60984 49500.00000 0 -3567681.258 17853738.891 17853635.295 10 0 60984 50400.00000 0 -4727299.470 19568828.915 15646823.576 10 0 60984 51300.00000 0 -5600489.158 21120631.552 13135707.861 10 0 60984 52200.00000 0 -6199409.604 22448620.374 10369043.537 10 0 60984 53100.00000 0 -6547954.949 23498032.887 7400597.776 10 0 60984 54000.00000 0 -6680489.248 24222171.854 4288102.694 10 0 60984 54900.00000 0 -6640139.264 24584388.575 1092127.232 10 0 60984 55800.00000 0 -6476717.942 24559663.347 -2125109.615 10 0 60984 56700.00000 0 -6244367.621 24135715.303 -5300960.206 10 0 60984 57600.00000 0 -5999024.099 23313593.758 -8373579.305 10 0 60984 58500.00000 0 -5795810.563 22107725.377 -11283139.434 10 0 60984 59400.00000 0 -5686473.344 20545414.745 -13973005.606 10 0 60984 60300.00000 0 -5716969.586 18665819.278 -16390845.459 10 0 60984 61200.00000 0 -5925310.255 16518441.818 -18489652.383 10 0 60984 62100.00000 0 -6339750.691 14161204.668 -20228661.284 10 0 60984 63000.00000 0 -6977405.885 11658186.310 -21574139.187 10 0 60984 63900.00000 0 -7843349.268 9077116.064 -22500035.610 10 0 60984 64800.00000 0 -8930233.140 6486731.657 -22988480.730 10 0 60984 65700.00000 0 -10218446.652 3954109.957 -23030122.565 10 0 60984 66600.00000 0 -11676804.528 1542081.785 -22624297.549 10 0 60984 67500.00000 0 -13263737.449 -693162.342 -21779032.187 10 0 60984 68400.00000 0 -14928934.057 -2704177.085 -20510876.615 10 0 60984 69300.00000 0 -16615365.714 -4453991.690 -18844574.008 10 0 60984 70200.00000 0 -18261609.325 -5917393.751 -16812572.761 10 0 60984 71100.00000 0 -19804371.182 -7081715.897 -14454391.209 10 0 60984 72000.00000 0 -21181106.499 -7947094.625 -11815847.362 10 0 60984 72900.00000 0 -22332625.329 -8526192.577 -8948168.580 10 0 60984 73800.00000 0 -23205576.233 -8843397.774 -5906998.346 10 0 60984 74700.00000 0 -23754704.061 -8933535.078 -2751319.253 10 0 60984 75600.00000 0 -23944787.702 -8840145.360 457687.110 10 0 60984 76500.00000 0 -23752176.923 -8613405.768 3657821.522 10 0 60984 77400.00000 0 -23165864.113 -8307779.330 6787067.066 10 0 60984 78300.00000 0 -22188046.105 -7979493.306 9784784.687 10 0 60984 79200.00000 0 -20834152.389 -7683952.657 12592881.637 10 0 60984 80100.00000 0 -19132338.167 -7473197.633 15156930.541 10 0 60984 81000.00000 0 -17122462.861 -7393512.482 17427218.013 10 0 60984 81900.00000 0 -14854595.837 -7483285.920 19359703.062 10 0 60984 82800.00000 0 -12387110.659 -7771213.508 20916867.340 10 0 60984 83700.00000 0 -9784446.011 -8274917.826 22068441.276 10 0 60984 84600.00000 0 -7114625.145 -9000045.088 22791992.497 10 0 60984 85500.00000 0 -4446635.650 -9939877.090 23073365.275 10 0 60985 0.00000 0 -1847777.366 -11075475.983 22906962.490 10 0 60985 900.00000 0 618913.932 -12376358.023 22295864.088 10 0 60985 1800.00000 0 2897057.477 -13801668.238 21251779.354 10 0 60985 2700.00000 0 4939039.032 -15301810.558 19794832.675 10 0 60985 3600.00000 0 6707752.073 -16820465.208 17953185.898 10 0 60985 4500.00000 0 8177897.671 -18296910.650 15762503.358 10 0 60985 5400.00000 0 9336788.685 -19668553.398 13265268.767 10 0 60985 6300.00000 0 10184624.638 -20873559.856 10509966.212 10 0 60985 7200.00000 0 10734225.841 -21853479.333 7550140.492 10 0 60985 8100.00000 0 11010238.155 -22555747.220 4443354.771 10 0 60985 9000.00000 0 11047842.347 -22935961.833 1250065.922 10 0 60985 9900.00000 0 10891023.223 -22959837.626 -1967559.926 10 0 60985 10800.00000 0 10590472.708 -22604751.002 -5146867.666 10 0 60985 11700.00000 0 10201216.818 -21860812.171 -8225944.377 10 0 60985 12600.00000 0 9780068.478 -20731416.707 -11144836.025 10 0 60985 13500.00000 0 9383015.523 -19233252.721 -13846724.763 10 0 60985 14400.00000 0 9062655.978 -17395762.863 -16279042.769 10 0 60985 15300.00000 0 8865790.428 -15260083.626 -18394500.122 10 0 60985 16200.00000 0 8831274.337 -12877506.631 -20152006.270 10 0 60985 17100.00000 0 8988221.730 -10307526.667 -21517467.124 10 0 60985 18000.00000 0 9354636.403 -7615558.544 -22464442.595 10 0 60985 18900.00000 0 9936528.355 -4870418.386 -22974652.448 10 0 60985 19800.00000 0 10727552.440 -2141674.465 -23038321.514 10 0 60985 20700.00000 0 11709184.010 503022.308 -22654358.497 10 0 60985 21600.00000 0 12851423.704 3000517.724 -21830365.917 10 0 60985 22500.00000 0 14114001.348 5294537.186 -20582481.815 10 0 60985 23400.00000 0 15448028.065 7337774.381 -18935057.071 10 0 60985 24300.00000 0 16798027.072 9093600.480 -16920175.063 10 0 60985 25200.00000 0 18104257.939 10537324.595 -14577023.344 10 0 60985 26100.00000 0 19305236.868 11656954.929 -11951129.664 10 0 60985 27000.00000 0 20340347.505 12453430.924 -9093477.173 10 0 60985 27900.00000 0 21152433.044 12940318.647 -6059515.843 10 0 60985 28800.00000 0 21690261.152 13142983.939 -2908089.167 10 0 60985 29700.00000 0 21910758.615 13097279.571 299703.287 10 0 60985 30600.00000 0 21780922.154 12847802.714 3501685.640 10 0 60985 31500.00000 0 21279325.362 12445796.893 6635805.168 10 0 60985 32400.00000 0 20397158.551 11946787.229 9641328.540 10 0 60985 33300.00000 0 19138757.633 11408048.761 12460012.059 10 0 60985 34200.00000 0 17521599.461 10886014.451 15037223.648 10 0 60985 35100.00000 0 15575763.055 10433731.836 17322995.397 10 0 60985 36000.00000 0 13342878.248 10098475.152 19272986.887 10 0 60985 36900.00000 0 10874604.416 9919613.220 20849341.184 10 0 60985 37800.00000 0 8230701.272 9926822.696 22021417.479 10 0 60985 38700.00000 0 5476770.485 10138721.982 22766386.608 10 0 60985 39600.00000 0 2681760.484 10561983.668 23069678.095 10 0 60985 40500.00000 0 -84663.426 11190963.613 22925270.004 10 0 60985 41400.00000 0 -2754775.787 12007863.331 22335815.637 10 0 60985 42300.00000 0 -5265365.347 12983420.265 21312603.910 10 0 60985 43200.00000 0 -7560121.000 14078098.441 19875353.265 10 0 60985 44100.00000 0 -9591730.668 15243731.002 18051841.926 10 0 60985 45000.00000 0 -11323606.029 16425546.892 15877380.452 10 0 60985 45900.00000 0 -12731161.265 17564497.480 13394135.639 10 0 60985 46800.00000 0 -13802592.370 18599785.757 10650317.853 10 0 60985 47700.00000 0 -14539124.338 19471491.619 7699246.885 10 0 60985 48600.00000 0 -14954715.910 20123182.113 4598314.186 10 0 60985 49500.00000 0 -15075234.556 20504395.595 1407861.730 10 0 60985 50400.00000 0 -14937136.988 20572893.654 -1810000.065 10 0 60985 51300.00000 0 -14585711.697 20296584.261 -4992611.458 10 0 60985 52200.00000 0 -14072958.897 19655033.381 -8077994.618 10 0 60985 53100.00000 0 -13455198.868 18640499.864 -11006071.641 10 0 60985 54000.00000 0 -12790511.328 17258448.775 -13719844.354 10 0 60985 54900.00000 0 -12136115.599 15527520.653 -16166511.832 10 0 60985 55800.00000 0 -11545803.716 13478957.503 -18298502.995 10 0 60985 56700.00000 0 -11067535.968 11155509.380 -20074403.750 10 0 60985 57600.00000 0 -10741301.150 8609867.445 -21459760.591 10 0 60985 58500.00000 0 -10597332.130 5902689.227 -22427745.296 10 0 60985 59400.00000 0 -10654751.857 3100298.755 -22959668.451 10 0 60985 60300.00000 0 -10920706.447 272157.523 -23045332.685 10 0 60985 61200.00000 0 -11390021.186 -2511788.503 -22683219.689 10 0 60985 62100.00000 0 -12045393.121 -5183775.903 -21880508.381 10 0 60985 63000.00000 0 -12858111.348 -7680794.735 -20652924.760 10 0 60985 63900.00000 0 -13789273.986 -9946957.587 -19024427.074 10 0 60985 64800.00000 0 -14791450.130 -11935569.656 -17026732.973 10 0 60985 65700.00000 0 -15810716.540 -13610815.405 -14698698.147 10 0 60985 66600.00000 0 -16788983.310 -14948993.345 -12085558.668 10 0 60985 67500.00000 0 -17666510.728 -15939249.394 -9238051.753 10 0 60985 68400.00000 0 -18384511.676 -16583780.048 -6211431.877 10 0 60985 69300.00000 0 -18887730.352 -16897498.656 -3064401.200 10 0 60985 70200.00000 0 -19126889.134 -16907180.351 142025.182 10 0 60985 71100.00000 0 -19060900.914 -16650122.796 3345697.395 10 0 60985 72000.00000 0 -18658754.017 -16172380.003 6484529.771 10 0 60985 72900.00000 0 -17900990.480 -15526644.095 9497697.727 10 0 60985 73800.00000 0 -16780715.368 -14769864.425 12326809.755 10 0 60985 74700.00000 0 -15304094.288 -13960704.256 14917032.238 10 0 60985 75600.00000 0 -13490317.504 -13156941.788 17218145.847 10 0 60985 76500.00000 0 -11371031.059 -12412924.492 19185513.667 10 0 60985 77400.00000 0 -8989257.363 -11777183.385 20780942.851 10 0 60985 78300.00000 0 -6397848.704 -11290307.170 21973423.671 10 0 60985 79200.00000 0 -3657536.366 -10983165.319 22739732.089 10 0 60985 80100.00000 0 -834654.758 -10875554.778 23064884.359 10 0 60985 81000.00000 0 2001366.623 -10975327.421 22942434.797 10 0 60985 81900.00000 0 4780640.841 -11278035.503 22374610.620 10 0 60985 82800.00000 0 7435482.590 -11767110.921 21372280.551 10 0 60985 83700.00000 0 9902979.341 -12414571.839 19954756.859 10 0 60985 84600.00000 0 12127368.383 -13182228.177 18149433.525 10 0 60985 85500.00000 0 14062121.253 -14023336.415 15991266.330 99